Showing default

VELOX C1, 41166

Orbit data source: Space-Track

VELOX C1, 41166 is a payload satellite owned by NTU (SG) in LEO that was launched on Wed, 16 Dec 2015 UTC via a PSLV launch vehicle from the Sirharikota (SRI). Payload-class satellites include a variety of spacecraft equipped with specific instruments for various scientific and technological missions. These include communications satellites like Starlink; space stations such as the ISS; scientific satellites like the Hubble; Earth observation satellites from companies like Planet Labs, Umbra, and HawkEye 360; GPS; miniature CubeSats for education and research; and military/defense satellites.

Not visible in the next 10 days
Identifier
41166, 2015-077A
Orbit
LEO
Country
Flag of SGSG / SING
Related business
Manufacturer
NTU
Mission
Operational Amateur Meteo Radio Occ.
Bus & Motor
VELOX-C, Unknown motor
Mass
123 kg wet, 123 kg dry
Launch date (UTC)
2015-12-16 (10 years ago)
Launch vehicle
PSLV
Launch site
Sirharikota (SRI)
Object type
Payload
Rocket body
Debris
Shape & HBR
Box + 2 Pan, 0.5 m
Radar Cross Section
0.348 m², Medium (>0.1 m² and < 1m²)

Expand to show TLE details & history
Last TLE update: 9 hours ago

TLE from 9 hours ago
0 VELOX C1
1 41166U 15077A   26093.77335821  .00034750  00000-0  64010-3 0  9997
2 41166  14.9835 299.5920 0004344 220.8590 139.1410 15.46997636571173
Epoch: 2026-04-03T18:33Z
TLE epoch observation values (Epoch: 2026-04-03T18:33:38.149Z)
Latitude
-0°
Longitude
-170.91964°
Altitude
424.958 km
Speed
7.658 km/s
True Right ascension
19h 58m 22s
True Declination
0° 00' 00"
Sunlit
Object was in daylight at epoch
Visualization orbit readout
Latitude
Unknown
Longitude
Unknown
Altitude
Unknown
Speed
Unknown
Apparent Right ascension
Unknown
Apparent Declination
Unknown
Sunlit
N/A
Visualization observer readout
Local Sidereal Time
09:07:35
Azimuth
Unknown
Elevation
Unknown
Doppler factor
Unknown
Orbital elements
Apogee altitude
434.305 km
Perigee altitude
428.389 km
Semi-major axis
6,809.484 km
Eccentricity
0.00043
Inclination
14.9835°
RAAN
299.592°
Arg. of periapsis
220.859°
True anomaly
139.17355°
Mean anomaly
139.141°
Eccentric anomaly
139.15728°
Mean motion
3.86253 °/min
Orbital period
93.2 mins
BSTAR
0.0006401
Loading maneuver chart data...
Computing Atmospheric mass density...
Loading historical data...
Loading historical data...
Loading historical data...
Loading historical data...
Loading historical data...
Loading historical data...
Loading historical data...

Documentation

Showing up to 5 results
|